contact:dominique.lefevre@mio.osupytheas.fr, maurice.libes@osupytheas.fr, didier.mallarino@osupytheas.fr
Project:EMSO http://www.emso-fr.org/EMSO-France
Depth: 2436.0 m
Title:EMSO Ligure Ouest : Data MII capteur AQUADOPP
Date,Latitude,Longitude,X_East,Y_North,Z_Up,Amplitude_X,Amplitude_Y,Amplitude_Z,Batterie,SoundSpeed,Heading,Pitch,Roll,Pressure,TIS,Speed,Direction
, degrees North, degrees East, m.s-1, m.s-1,m.s-1, 1, 1, 1, Volt, m.s-1, degree, degree, degree, dbar, degree_C, m.s-1, degree
2019-07-24T00:01:43,42.805,6.029,0.034,0.015,-0.012,102.0,117.0,99.0,13.4,1505.3,323.7,-0.7,1.9,2470.212,13.32,0.037,66.2
2019-07-24T00:04:44,42.805,6.029,0.025,0.009,-0.018,102.0,119.0,99.0,13.4,1505.3,323.6,-0.7,1.8,2470.186,13.32,0.026,70.2
2019-07-24T00:07:45,42.805,6.029,0.047,0.004,0.016,102.0,118.0,99.0,13.4,1505.3,326.2,-0.7,1.8,2470.159,13.32,0.047,85.1
2019-07-24T00:10:46,42.805,6.029,0.033,0.004,-0.003,102.0,118.0,99.0,13.4,1505.3,323.2,-0.7,1.8,2470.191,13.32,0.033,83.1
2019-07-24T00:13:47,42.805,6.029,0.051,0.035,-0.014,102.0,121.0,99.0,13.4,1505.3,323.3,-0.7,1.8,2470.195,13.32,0.061,55.5
2019-07-24T00:16:48,42.805,6.029,0.012,0.025,-0.042,102.0,119.0,101.0,13.4,1505.3,326.4,-0.7,1.8,2470.165,13.32,0.027,25.6
2019-07-24T00:19:49,42.805,6.029,0.043,0.037,-0.006,103.0,116.0,100.0,13.4,1505.3,326.6,-0.7,1.9,2470.122,13.32,0.056,49.3
2019-07-24T00:22:50,42.805,6.029,0.024,0.012,-0.048,104.0,118.0,99.0,13.4,1505.3,324.3,-0.7,1.8,2470.159,13.32,0.026,63.4
2019-07-24T00:25:51,42.805,6.029,0.034,0.035,-0.012,102.0,120.0,101.0,13.4,1505.3,324.4,-0.7,1.8,2470.177,13.32,0.048,44.2
2019-07-24T00:28:52,42.805,6.029,0.03,0.027,-0.018,104.0,117.0,100.0,13.3,1505.3,324.4,-0.7,1.8,2470.108,13.32,0.04,48.0
2019-07-24T00:31:53,42.805,6.029,0.036,0.008,-0.03,103.0,116.0,99.0,13.4,1505.3,326.6,-0.7,1.8,2470.174,13.32,0.036,77.5
2019-07-24T00:34:54,42.805,6.029,0.032,0.01,-0.001,101.0,117.0,99.0,13.4,1505.3,328.2,-0.7,1.9,2470.169,13.32,0.033,72.6
2019-07-24T00:37:55,42.805,6.029,0.027,0.012,-0.031,103.0,115.0,100.0,13.3,1505.3,324.0,-0.7,1.8,2470.173,13.32,0.029,66.0
2019-07-24T00:40:56,42.805,6.029,0.011,0.006,-0.009,103.0,119.0,100.0,13.3,1505.3,326.7,-0.7,1.9,2470.137,13.32,0.012,61.4
2019-07-24T00:43:57,42.805,6.029,0.02,0.024,-0.017,104.0,118.0,100.0,13.4,1505.3,325.6,-0.7,1.8,2470.139,13.32,0.031,39.8
2019-07-24T00:46:58,42.805,6.029,0.047,0.02,-0.04,102.0,118.0,100.0,13.4,1505.3,326.0,-0.7,1.9,2470.156,13.32,0.051,67.0
2019-07-24T00:49:59,42.805,6.029,0.046,0.008,-0.015,103.0,117.0,100.0,13.3,1505.3,327.8,-0.7,1.8,2470.185,13.32,0.046,80.1
2019-07-24T00:53:00,42.805,6.029,0.023,0.023,-0.037,103.0,119.0,99.0,13.4,1505.3,327.6,-0.7,1.8,2470.098,13.32,0.032,45.0
2019-07-24T00:56:01,42.805,6.029,0.019,0.001,-0.014,103.0,116.0,100.0,13.4,1505.3,325.0,-0.7,1.8,2470.145,13.32,0.019,87.0
2019-07-24T00:59:02,42.805,6.029,0.01,-0.006,-0.023,102.0,114.0,100.0,13.4,1505.3,325.4,-0.7,1.8,2470.176,13.32,0.011,121.0
2019-07-24T01:02:03,42.805,6.029,0.032,0.018,-0.006,104.0,117.0,99.0,13.3,1505.3,324.4,-0.7,1.8,2470.139,13.32,0.036,60.6
2019-07-24T01:05:04,42.805,6.029,0.036,0.015,-0.006,104.0,114.0,99.0,13.4,1505.3,325.1,-0.7,1.8,2470.159,13.32,0.039,67.4
2019-07-24T01:08:05,42.805,6.029,0.021,0.008,-0.011,103.0,116.0,99.0,13.4,1505.3,324.5,-0.7,1.8,2470.13,13.32,0.022,69.1
2019-07-24T01:11:06,42.805,6.029,0.02,0.002,-0.023,103.0,117.0,99.0,13.4,1505.3,324.9,-0.7,1.9,2470.118,13.32,0.02,84.3
2019-07-24T01:14:07,42.805,6.029,0.025,0.003,-0.027,103.0,116.0,100.0,13.4,1505.3,328.5,-0.7,1.8,2470.145,13.32,0.025,83.2
2019-07-24T01:17:08,42.805,6.029,0.047,0.013,0.006,103.0,114.0,100.0,13.4,1505.3,323.6,-0.7,1.8,2470.16,13.32,0.048,74.5
2019-07-24T01:20:09,42.805,6.029,0.032,0.026,-0.003,102.0,116.0,99.0,13.4,1505.3,323.3,-0.8,1.8,2470.149,13.32,0.041,50.9
2019-07-24T01:23:10,42.805,6.029,0.028,0.008,0.006,103.0,116.0,98.0,13.4,1505.3,323.0,-0.8,1.8,2470.125,13.32,0.029,74.1
2019-07-24T01:26:11,42.805,6.029,0.006,0.017,-0.034,104.0,115.0,99.0,13.3,1505.3,325.2,-0.7,1.8,2470.132,13.32,0.018,19.4
2019-07-24T01:29:12,42.805,6.029,0.02,0.011,-0.001,103.0,116.0,99.0,13.3,1505.3,322.7,-0.7,1.8,2470.158,13.32,0.022,61.2
2019-07-24T01:32:13,42.805,6.029,0.053,0.014,-0.017,103.0,113.0,98.0,13.4,1505.3,325.3,-0.7,1.8,2470.09,13.32,0.054,75.2
2019-07-24T01:35:14,42.805,6.029,0.002,-0.003,-0.017,102.0,117.0,99.0,13.4,1505.3,326.6,-0.7,1.8,2470.148,13.32,0.003,146.3
2019-07-24T01:38:15,42.805,6.029,0.021,0.012,0.001,103.0,116.0,100.0,13.4,1505.3,327.8,-0.7,1.8,2470.109,13.32,0.024,60.3
2019-07-24T01:41:16,42.805,6.029,0.001,0.006,-0.039,102.0,118.0,100.0,13.3,1505.3,324.4,-0.7,1.8,2470.143,13.32,0.006,9.5
2019-07-24T01:44:17,42.805,6.029,0.019,0.007,-0.022,105.0,115.0,100.0,13.4,1505.3,324.0,-0.7,1.9,2470.096,13.32,0.02,69.8
2019-07-24T01:47:18,42.805,6.029,0.014,0.011,-0.01,103.0,116.0,100.0,13.3,1505.3,327.1,-0.7,1.8,2470.138,13.32,0.017,51.8
2019-07-24T01:50:19,42.805,6.029,0.005,0.003,-0.085,102.0,114.0,100.0,13.4,1505.3,326.7,-0.7,1.8,2470.108,13.32,0.005,59.0
2019-07-24T01:53:20,42.805,6.029,0.033,0.007,0.005,100.0,116.0,99.0,13.3,1505.3,325.3,-0.7,1.8,2470.176,13.32,0.033,78.0
2019-07-24T01:56:21,42.805,6.029,0.035,0.015,0.004,103.0,116.0,100.0,13.3,1505.3,325.8,-0.7,1.8,2470.134,13.32,0.038,66.8
2019-07-24T01:59:22,42.805,6.029,0.035,0.009,-0.023,103.0,117.0,99.0,13.3,1505.3,324.4,-0.7,1.8,2470.091,13.32,0.036,75.6
2019-07-24T02:02:23,42.805,6.029,0.036,0.022,0.001,102.0,117.0,101.0,13.3,1505.3,324.0,-0.7,1.8,2470.127,13.32,0.042,58.6
2019-07-24T02:05:24,42.805,6.029,0.019,0.0,-0.007,103.0,117.0,99.0,13.4,1505.3,325.8,-0.7,1.8,2470.157,13.32,0.019,90.0
2019-07-24T02:08:25,42.805,6.029,0.034,-0.001,-0.021,103.0,111.0,100.0,13.4,1505.3,325.1,-0.7,1.8,2470.125,13.32,0.034,91.7
2019-07-24T02:11:26,42.805,6.029,0.021,0.004,-0.028,103.0,113.0,99.0,13.4,1505.3,326.5,-0.7,1.8,2470.141,13.32,0.021,79.2
2019-07-24T02:14:27,42.805,6.029,0.016,0.012,-0.044,102.0,114.0,100.0,13.3,1505.3,324.6,-0.7,1.9,2470.121,13.32,0.02,53.1
2019-07-24T02:17:28,42.805,6.029,0.025,0.005,-0.012,101.0,114.0,101.0,13.4,1505.3,324.3,-0.7,1.8,2470.125,13.32,0.025,78.7
2019-07-24T02:20:29,42.805,6.029,0.019,0.015,-0.033,103.0,114.0,100.0,13.4,1505.3,325.3,-0.7,1.8,2470.046,13.32,0.024,51.7
2019-07-24T02:23:30,42.805,6.029,-0.014,0.008,-0.042,101.0,115.0,100.0,13.4,1505.3,324.9,-0.7,1.8,2470.076,13.32,0.016,299.7
2019-07-24T02:26:31,42.805,6.029,0.027,-0.007,0.0,103.0,117.0,100.0,13.4,1505.3,328.2,-0.7,1.8,2470.126,13.32,0.027,104.5
2019-07-24T02:29:32,42.805,6.029,0.04,0.008,-0.015,103.0,117.0,98.0,13.4,1505.3,327.8,-0.7,1.8,2470.114,13.32,0.04,78.7
2019-07-24T02:32:33,42.805,6.029,0.027,-0.007,-0.048,103.0,115.0,98.0,13.4,1505.3,327.7,-0.7,1.8,2470.145,13.32,0.027,104.5
2019-07-24T02:35:34,42.805,6.029,0.017,0.02,-0.023,102.0,114.0,100.0,13.4,1505.3,326.4,-0.8,1.8,2470.072,13.32,0.026,40.4
2019-07-24T02:38:35,42.805,6.029,0.04,0.01,-0.009,103.0,116.0,101.0,13.4,1505.3,326.4,-0.8,1.9,2470.09,13.32,0.041,76.0
2019-07-24T02:41:36,42.805,6.029,0.033,-0.003,-0.023,102.0,116.0,100.0,13.3,1505.3,323.3,-0.7,1.9,2470.064,13.32,0.033,95.2
2019-07-24T02:44:37,42.805,6.029,0.012,0.019,-0.006,102.0,117.0,100.0,13.4,1505.3,323.6,-0.7,1.8,2470.083,13.32,0.022,32.3
2019-07-24T02:47:38,42.805,6.029,0.043,0.003,-0.03,104.0,114.0,99.0,13.4,1505.3,325.1,-0.7,1.9,2470.103,13.32,0.043,86.0
2019-07-24T02:50:39,42.805,6.029,0.038,0.022,0.001,103.0,110.0,99.0,13.4,1505.3,323.5,-0.7,1.8,2470.112,13.32,0.043,59.9
2019-07-24T02:53:40,42.805,6.029,0.034,0.0,-0.036,103.0,115.0,100.0,13.4,1505.3,324.3,-0.7,1.8,2470.139,13.32,0.034,90.0
2019-07-24T02:56:41,42.805,6.029,0.018,-0.016,0.005,102.0,111.0,99.0,13.4,1505.3,328.5,-0.7,1.8,2470.166,13.32,0.024,131.6
2019-07-24T02:59:42,42.805,6.029,0.07,0.016,-0.007,103.0,118.0,100.0,13.4,1505.3,324.5,-0.7,1.8,2470.067,13.32,0.071,77.1
2019-07-24T03:02:43,42.805,6.029,0.032,0.018,-0.016,101.0,114.0,99.0,13.4,1505.3,325.2,-0.7,1.9,2470.093,13.32,0.036,60.6
2019-07-24T03:05:44,42.805,6.029,0.006,0.022,0.002,103.0,114.0,99.0,13.4,1505.3,323.4,-0.7,1.8,2470.078,13.32,0.022,15.3
2019-07-24T03:08:45,42.805,6.029,0.039,0.01,-0.034,102.0,116.0,98.0,13.3,1505.3,323.1,-0.7,1.9,2470.107,13.32,0.04,75.6
2019-07-24T03:11:46,42.805,6.029,0.037,0.006,0.014,102.0,118.0,99.0,13.4,1505.3,324.8,-0.7,1.8,2470.061,13.32,0.037,80.8
2019-07-24T03:14:47,42.805,6.029,0.029,0.0,-0.015,102.0,117.0,99.0,13.4,1505.3,326.3,-0.7,1.8,2470.079,13.32,0.028,90.0
2019-07-24T03:17:48,42.805,6.029,0.035,-0.002,-0.011,103.0,114.0,100.0,13.3,1505.3,324.7,-0.7,1.9,2470.115,13.32,0.035,93.3
2019-07-24T03:20:49,42.805,6.029,0.02,0.009,0.01,103.0,110.0,99.0,13.3,1505.3,326.4,-0.7,1.9,2470.075,13.32,0.021,65.8
2019-07-24T03:23:50,42.805,6.029,0.038,0.0,-0.03,104.0,116.0,100.0,13.3,1505.3,325.6,-0.7,1.8,2470.078,13.32,0.038,90.0
2019-07-24T03:26:51,42.805,6.029,0.016,0.02,-0.026,104.0,114.0,100.0,13.4,1505.3,326.7,-0.7,1.8,2470.082,13.32,0.025,38.7
2019-07-24T03:29:52,42.805,6.029,0.046,0.001,-0.017,102.0,114.0,100.0,13.4,1505.3,325.7,-0.7,1.8,2470.091,13.32,0.046,88.8
2019-07-24T03:32:53,42.805,6.029,0.028,-0.015,-0.034,103.0,116.0,99.0,13.4,1505.3,326.3,-0.7,1.9,2470.111,13.32,0.031,118.2
2019-07-24T03:35:54,42.805,6.029,0.055,0.002,-0.014,103.0,115.0,98.0,13.4,1505.3,324.7,-0.7,1.8,2470.099,13.32,0.055,87.9
2019-07-24T03:38:55,42.805,6.029,0.023,0.001,0.0,103.0,114.0,99.0,13.4,1505.3,326.4,-0.7,1.8,2470.121,13.32,0.023,87.5
2019-07-24T03:41:56,42.805,6.029,0.028,0.012,-0.042,103.0,111.0,100.0,13.4,1505.3,327.2,-0.7,1.8,2470.074,13.32,0.03,66.8
2019-07-24T03:44:57,42.805,6.029,0.034,0.012,-0.001,103.0,117.0,100.0,13.4,1505.3,325.9,-0.7,1.8,2470.109,13.32,0.036,70.6
2019-07-24T03:47:58,42.805,6.029,0.022,0.025,0.001,102.0,117.0,100.0,13.4,1505.3,326.3,-0.7,1.8,2470.101,13.32,0.033,41.3
2019-07-24T03:50:59,42.805,6.029,0.048,0.017,0.0,102.0,116.0,99.0,13.4,1505.3,326.5,-0.7,1.8,2470.12,13.32,0.05,70.5
2019-07-24T03:54:00,42.805,6.029,0.032,0.002,-0.04,104.0,115.0,99.0,13.4,1505.3,326.8,-0.7,1.9,2470.053,13.32,0.032,86.4
2019-07-24T03:57:01,42.805,6.029,0.034,0.019,-0.038,103.0,116.0,99.0,13.4,1505.3,323.2,-0.7,1.8,2470.071,13.32,0.038,60.8
2019-07-24T04:00:02,42.805,6.029,0.039,0.011,-0.015,102.0,117.0,99.0,13.4,1505.3,326.1,-0.7,1.8,2470.097,13.32,0.04,74.3
2019-07-24T04:03:03,42.805,6.029,0.032,0.02,-0.032,103.0,116.0,99.0,13.4,1505.3,327.4,-0.7,1.8,2470.088,13.32,0.037,58.0
2019-07-24T04:06:04,42.805,6.029,0.053,0.03,0.009,103.0,116.0,99.0,13.4,1505.3,326.0,-0.7,1.8,2470.066,13.32,0.06,60.5
2019-07-24T04:09:05,42.805,6.029,0.02,-0.004,-0.018,102.0,114.0,99.0,13.4,1505.3,323.6,-0.7,1.8,2470.104,13.32,0.02,101.3
2019-07-24T04:12:06,42.805,6.029,0.02,0.003,-0.007,102.0,113.0,100.0,13.4,1505.3,324.3,-0.7,1.8,2470.049,13.32,0.02,81.5
2019-07-24T04:15:07,42.805,6.029,0.024,0.002,-0.02,103.0,112.0,99.0,13.3,1505.3,324.2,-0.7,1.9,2470.08,13.32,0.024,85.2
2019-07-24T04:18:08,42.805,6.029,0.024,0.01,-0.019,102.0,113.0,99.0,13.3,1505.3,324.1,-0.7,1.8,2470.089,13.32,0.026,67.4
2019-07-24T04:21:09,42.805,6.029,0.033,0.0,-0.03,103.0,111.0,99.0,13.4,1505.3,323.7,-0.7,1.8,2470.04,13.32,0.033,90.0
2019-07-24T04:24:10,42.805,6.029,0.033,0.012,0.002,104.0,115.0,99.0,13.4,1505.3,323.5,-0.7,1.8,2470.03,13.32,0.035,70.0
2019-07-24T04:27:11,42.805,6.029,0.006,0.02,-0.027,102.0,115.0,99.0,13.3,1505.3,323.9,-0.7,1.8,2470.081,13.32,0.02,16.7
2019-07-24T04:30:12,42.805,6.029,0.045,-0.005,-0.016,103.0,114.0,99.0,13.4,1505.3,323.9,-0.7,1.8,2470.046,13.32,0.045,96.3
2019-07-24T04:33:13,42.805,6.029,0.046,0.017,0.003,102.0,115.0,99.0,13.4,1505.3,325.1,-0.7,1.8,2470.03,13.32,0.049,69.7
2019-07-24T04:36:14,42.805,6.029,0.038,0.011,-0.036,102.0,112.0,101.0,13.3,1505.3,326.5,-0.7,1.8,2470.089,13.32,0.039,73.9
2019-07-24T04:39:15,42.805,6.029,0.034,-0.007,-0.019,104.0,113.0,100.0,13.4,1505.3,325.0,-0.7,1.8,2470.053,13.32,0.034,101.6
2019-07-24T04:42:16,42.805,6.029,0.029,0.003,-0.022,104.0,112.0,99.0,13.4,1505.3,324.6,-0.8,1.8,2470.023,13.32,0.029,84.1
2019-07-24T04:45:17,42.805,6.029,0.034,0.018,0.014,102.0,113.0,99.0,13.4,1505.3,327.6,-0.7,1.8,2470.07,13.32,0.038,62.1
2019-07-24T04:48:18,42.805,6.029,0.017,0.004,-0.058,104.0,111.0,100.0,13.3,1505.3,328.5,-0.7,1.9,2470.068,13.32,0.017,76.8
2019-07-24T04:51:19,42.805,6.029,0.021,0.002,-0.01,103.0,111.0,99.0,13.3,1505.3,327.7,-0.7,1.8,2470.095,13.32,0.021,84.6
2019-07-24T04:54:20,42.805,6.029,0.029,0.0,0.002,102.0,114.0,101.0,13.4,1505.3,327.0,-0.8,1.8,2470.076,13.32,0.028,90.0
2019-07-24T04:57:21,42.805,6.029,0.029,-0.001,-0.016,104.0,118.0,99.0,13.3,1505.3,323.3,-0.7,1.8,2470.062,13.32,0.029,92.0
2019-07-24T05:00:22,42.805,6.029,0.066,0.006,-0.013,104.0,114.0,99.0,13.4,1505.3,323.3,-0.7,1.8,2470.093,13.32,0.066,84.8
2019-07-24T05:03:23,42.805,6.029,0.026,0.001,-0.051,103.0,114.0,99.0,13.3,1505.3,323.4,-0.7,1.8,2470.076,13.32,0.026,87.8
2019-07-24T05:06:24,42.805,6.029,0.013,0.014,-0.037,104.0,117.0,99.0,13.3,1505.3,326.3,-0.7,1.8,2470.099,13.32,0.019,42.9
2019-07-24T05:09:25,42.805,6.029,0.036,0.001,-0.032,103.0,115.0,100.0,13.3,1505.3,326.8,-0.7,1.8,2470.053,13.32,0.036,88.4
2019-07-24T05:12:26,42.805,6.029,0.045,0.001,-0.043,103.0,113.0,99.0,13.4,1505.3,325.9,-0.7,1.8,2470.06,13.32,0.045,88.7
2019-07-24T05:15:27,42.805,6.029,0.04,0.0,-0.045,103.0,112.0,101.0,13.3,1505.3,326.8,-0.7,1.9,2470.021,13.32,0.04,90.0
2019-07-24T05:18:28,42.805,6.029,0.035,0.002,-0.007,104.0,114.0,100.0,13.3,1505.3,325.8,-0.7,1.8,2470.046,13.32,0.035,86.7
2019-07-24T05:21:29,42.805,6.029,0.035,0.01,-0.013,103.0,113.0,99.0,13.3,1505.3,324.9,-0.7,1.9,2470.065,13.32,0.036,74.1
2019-07-24T05:24:30,42.805,6.029,0.037,0.022,-0.037,103.0,114.0,99.0,13.4,1505.3,326.6,-0.7,1.8,2470.043,13.32,0.043,59.3
2019-07-24T05:27:31,42.805,6.029,0.04,-0.007,-0.015,102.0,113.0,101.0,13.3,1505.3,324.3,-0.7,1.9,2470.047,13.32,0.04,99.9
2019-07-24T05:30:32,42.805,6.029,0.03,-0.009,-0.012,103.0,112.0,99.0,13.4,1505.3,328.6,-0.7,1.8,2469.992,13.32,0.031,106.7
2019-07-24T05:33:33,42.805,6.029,0.036,-0.001,-0.026,102.0,114.0,98.0,13.4,1505.3,325.9,-0.7,1.8,2470.033,13.32,0.036,91.6
2019-07-24T05:36:34,42.805,6.029,0.027,-0.003,-0.024,102.0,115.0,101.0,13.3,1505.3,324.2,-0.7,1.8,2470.04,13.32,0.027,96.3
2019-07-24T05:39:35,42.805,6.029,0.031,0.005,-0.024,103.0,113.0,99.0,13.3,1505.3,326.6,-0.7,1.8,2470.033,13.32,0.031,80.8
2019-07-24T05:42:36,42.805,6.029,0.029,0.025,0.005,102.0,112.0,100.0,13.4,1505.3,326.9,-0.7,1.8,2470.071,13.32,0.038,49.2
2019-07-24T05:45:37,42.805,6.029,0.034,-0.003,-0.041,104.0,114.0,99.0,13.4,1505.3,326.5,-0.7,1.8,2470.061,13.32,0.034,95.0
2019-07-24T05:48:38,42.805,6.029,0.038,0.002,-0.02,102.0,112.0,99.0,13.4,1505.3,327.1,-0.7,1.8,2470.029,13.32,0.038,87.0
2019-07-24T05:51:39,42.805,6.029,0.059,0.014,0.006,103.0,113.0,98.0,13.4,1505.3,324.1,-0.7,1.8,2470.069,13.32,0.06,76.7
2019-07-24T05:54:40,42.805,6.029,0.029,0.006,-0.001,102.0,112.0,100.0,13.4,1505.3,325.4,-0.7,1.9,2470.008,13.32,0.029,78.3
2019-07-24T05:57:41,42.805,6.029,0.013,0.005,-0.032,104.0,114.0,99.0,13.4,1505.3,324.9,-0.8,1.8,2470.021,13.32,0.013,69.0
2019-07-24T06:00:42,42.805,6.029,0.053,0.008,-0.006,104.0,115.0,99.0,13.4,1505.3,324.9,-0.7,1.8,2470.01,13.32,0.053,81.4
2019-07-24T06:03:43,42.805,6.029,0.054,0.025,0.017,102.0,113.0,99.0,13.4,1505.3,327.8,-0.7,1.8,2469.985,13.32,0.059,65.2
2019-07-24T06:06:44,42.805,6.029,0.057,0.008,0.004,103.0,115.0,99.0,13.3,1505.3,326.5,-0.7,1.9,2470.045,13.32,0.057,82.0
2019-07-24T06:09:45,42.805,6.029,0.04,0.013,-0.026,103.0,116.0,99.0,13.4,1505.3,323.8,-0.7,1.8,2470.018,13.32,0.042,72.0
2019-07-24T06:12:46,42.805,6.029,0.03,0.018,-0.031,103.0,117.0,99.0,13.3,1505.3,324.5,-0.7,1.9,2470.043,13.32,0.034,59.0
2019-07-24T06:15:47,42.805,6.029,0.032,0.013,-0.036,103.0,115.0,100.0,13.3,1505.3,326.9,-0.8,1.9,2470.019,13.32,0.034,67.9
2019-07-24T06:18:48,42.805,6.029,0.044,0.007,-0.052,104.0,112.0,98.0,13.4,1505.3,324.5,-0.7,1.8,2470.015,13.32,0.044,81.0
2019-07-24T06:21:49,42.805,6.029,0.053,0.001,-0.051,103.0,115.0,99.0,13.4,1505.3,326.4,-0.7,1.8,2469.989,13.32,0.053,88.9
2019-07-24T06:24:50,42.805,6.029,0.023,0.004,-0.042,102.0,113.0,99.0,13.4,1505.3,327.6,-0.7,1.8,2469.998,13.32,0.023,80.1
2019-07-24T06:27:51,42.805,6.029,0.017,-0.001,-0.014,103.0,114.0,99.0,13.4,1505.3,324.1,-0.7,1.8,2470.041,13.32,0.017,93.4
2019-07-24T06:30:52,42.805,6.029,0.051,0.009,0.032,103.0,112.0,99.0,13.3,1505.3,322.8,-0.8,1.8,2470.028,13.32,0.051,80.0
2019-07-24T06:33:53,42.805,6.029,0.027,0.0,-0.013,102.0,114.0,100.0,13.4,1505.3,326.5,-0.8,1.9,2470.008,13.32,0.026,90.0
2019-07-24T06:36:54,42.805,6.029,0.0,-0.003,-0.052,103.0,113.0,99.0,13.4,1505.3,325.0,-0.7,1.8,2470.075,13.32,0.003,180.0
2019-07-24T06:39:55,42.805,6.029,0.034,0.008,0.013,102.0,115.0,100.0,13.4,1505.3,325.5,-0.7,1.9,2470.049,13.32,0.034,76.8
2019-07-24T06:42:56,42.805,6.029,0.021,-0.009,-0.045,102.0,114.0,98.0,13.3,1505.3,327.1,-0.7,1.8,2470.046,13.32,0.022,113.2
2019-07-24T06:45:57,42.805,6.029,0.031,0.012,-0.017,103.0,114.0,99.0,13.4,1505.3,324.2,-0.7,1.9,2470.006,13.32,0.033,68.8
2019-07-24T06:48:58,42.805,6.029,0.05,0.003,-0.025,103.0,114.0,100.0,13.3,1505.3,322.8,-0.7,1.8,2470.069,13.32,0.05,86.6
2019-07-24T06:51:59,42.805,6.029,0.05,0.012,0.01,103.0,113.0,101.0,13.4,1505.3,326.8,-0.7,1.9,2470.014,13.32,0.051,76.5
2019-07-24T06:55:00,42.805,6.029,0.047,0.006,-0.007,104.0,116.0,98.0,13.4,1505.3,326.5,-0.7,1.9,2470.033,13.32,0.047,82.7
2019-07-24T06:58:01,42.805,6.029,0.032,0.02,0.008,104.0,114.0,100.0,13.4,1505.3,323.0,-0.7,1.8,2469.987,13.32,0.037,58.0
2019-07-24T07:01:02,42.805,6.029,0.051,-0.015,-0.026,103.0,115.0,100.0,13.3,1505.3,325.9,-0.7,1.8,2470.041,13.32,0.053,106.4
2019-07-24T07:04:03,42.805,6.029,0.037,0.021,-0.021,103.0,116.0,100.0,13.4,1505.3,326.1,-0.7,1.8,2470.037,13.32,0.042,60.4
2019-07-24T07:07:04,42.805,6.029,0.044,-0.007,-0.015,103.0,113.0,98.0,13.4,1505.3,324.2,-0.7,1.9,2470.039,13.32,0.044,99.0
2019-07-24T07:10:05,42.805,6.029,0.017,0.01,-0.021,105.0,113.0,99.0,13.4,1505.3,324.7,-0.7,1.8,2470.052,13.32,0.019,59.5
2019-07-24T07:13:06,42.805,6.029,0.031,0.018,-0.011,103.0,117.0,100.0,13.4,1505.3,325.3,-0.7,1.8,2470.042,13.32,0.035,59.9
2019-07-24T07:16:07,42.805,6.029,0.033,0.003,-0.033,103.0,114.0,100.0,13.4,1505.3,324.4,-0.8,1.8,2470.033,13.32,0.033,84.8
2019-07-24T07:19:08,42.805,6.029,0.011,0.011,-0.049,104.0,115.0,99.0,13.4,1505.3,324.4,-0.7,1.8,2470.03,13.32,0.015,45.0
2019-07-24T07:22:09,42.805,6.029,0.029,0.009,-0.044,104.0,118.0,98.0,13.4,1505.3,325.6,-0.7,1.9,2470.06,13.32,0.03,72.8
2019-07-24T07:25:10,42.805,6.029,0.043,0.004,-0.038,103.0,112.0,100.0,13.4,1505.3,327.8,-0.7,1.9,2470.048,13.32,0.043,84.7
2019-07-24T07:28:11,42.805,6.029,0.07,-0.004,-0.003,104.0,116.0,99.0,13.4,1505.3,327.2,-0.8,1.8,2470.032,13.32,0.07,93.3
2019-07-24T07:31:12,42.805,6.029,0.042,0.038,0.022,103.0,116.0,100.0,13.4,1505.3,328.2,-0.7,1.8,2470.002,13.32,0.056,47.9
2019-07-24T07:34:13,42.805,6.029,0.016,0.021,-0.04,103.0,114.0,100.0,13.4,1505.3,323.5,-0.7,1.8,2470.025,13.32,0.026,37.3
2019-07-24T07:37:14,42.805,6.029,0.006,0.01,-0.013,102.0,112.0,98.0,13.4,1505.3,325.4,-0.7,1.8,2470.102,13.32,0.011,31.0
2019-07-24T07:40:15,42.805,6.029,-0.001,-0.001,-0.04,102.0,116.0,99.0,13.4,1505.3,325.0,-0.7,1.8,2470.079,13.32,0.001,225.0
2019-07-24T07:43:16,42.805,6.029,0.053,0.019,-0.009,102.0,116.0,99.0,13.3,1505.3,326.2,-0.7,1.8,2470.064,13.32,0.056,70.3
2019-07-24T07:46:17,42.805,6.029,0.037,0.009,-0.008,104.0,115.0,100.0,13.4,1505.3,326.5,-0.7,1.9,2470.026,13.32,0.038,76.3
2019-07-24T07:49:18,42.805,6.029,0.048,0.022,0.04,102.0,111.0,98.0,13.4,1505.3,325.2,-0.7,1.9,2470.042,13.32,0.052,65.4
2019-07-24T07:52:19,42.805,6.029,0.026,0.002,-0.015,103.0,112.0,100.0,13.3,1505.3,324.4,-0.7,1.8,2469.994,13.32,0.026,85.6
2019-07-24T07:55:20,42.805,6.029,0.064,0.023,0.001,104.0,114.0,99.0,13.4,1505.3,324.5,-0.7,1.8,2470.019,13.32,0.068,70.2
2019-07-24T07:58:21,42.805,6.029,0.016,0.012,-0.044,103.0,114.0,99.0,13.4,1505.3,325.3,-0.7,1.8,2470.028,13.32,0.02,53.1
2019-07-24T08:01:22,42.805,6.029,0.024,-0.004,-0.007,103.0,113.0,99.0,13.3,1505.3,328.2,-0.7,1.9,2470.028,13.32,0.024,99.5
2019-07-24T08:04:23,42.805,6.029,0.028,0.01,-0.029,102.0,112.0,100.0,13.4,1505.3,327.3,-0.7,1.8,2470.011,13.32,0.029,70.4
2019-07-24T08:07:24,42.805,6.029,0.046,0.031,-0.018,103.0,116.0,99.0,13.4,1505.3,324.5,-0.7,1.9,2470.047,13.32,0.055,56.0
2019-07-24T08:10:25,42.805,6.029,0.034,0.014,-0.057,103.0,112.0,99.0,13.4,1505.3,324.3,-0.7,1.8,2470.059,13.32,0.036,67.6
2019-07-24T08:13:26,42.805,6.029,0.038,0.011,-0.029,101.0,112.0,100.0,13.3,1505.3,324.0,-0.7,1.9,2470.024,13.32,0.039,73.9
2019-07-24T08:16:27,42.805,6.029,0.038,0.0,-0.029,103.0,111.0,99.0,13.4,1505.3,323.3,-0.7,1.8,2470.007,13.32,0.038,90.0
2019-07-24T08:19:28,42.805,6.029,0.012,0.013,-0.036,103.0,112.0,99.0,13.3,1505.3,327.4,-0.8,1.8,2470.04,13.32,0.017,42.7
2019-07-24T08:22:29,42.805,6.029,0.015,0.016,0.007,102.0,112.0,100.0,13.4,1505.3,327.6,-0.7,1.8,2470.027,13.32,0.021,43.1
2019-07-24T08:25:30,42.805,6.029,0.038,-0.004,0.002,102.0,113.0,99.0,13.4,1505.3,326.2,-0.7,1.8,2470.072,13.32,0.038,96.0
2019-07-24T08:28:31,42.805,6.029,0.049,0.001,-0.004,103.0,114.0,99.0,13.4,1505.3,327.8,-0.7,1.8,2470.048,13.32,0.049,88.8
2019-07-24T08:31:32,42.805,6.029,0.054,0.02,0.004,103.0,111.0,100.0,13.4,1505.3,327.3,-0.7,1.8,2470.052,13.32,0.057,69.7
2019-07-24T08:34:33,42.805,6.029,0.041,0.01,-0.001,103.0,112.0,100.0,13.4,1505.3,328.1,-0.7,1.9,2470.041,13.32,0.042,76.3
2019-07-24T08:37:34,42.805,6.029,0.035,0.007,-0.035,104.0,111.0,100.0,13.4,1505.3,326.1,-0.7,1.8,2470.003,13.32,0.035,78.7
2019-07-24T08:40:35,42.805,6.029,0.037,0.013,-0.006,103.0,109.0,99.0,13.3,1505.3,326.5,-0.7,1.9,2470.071,13.32,0.039,70.6
2019-07-24T08:43:36,42.805,6.029,0.008,0.004,-0.021,102.0,113.0,99.0,13.4,1505.3,327.7,-0.7,1.8,2470.072,13.32,0.008,63.4
2019-07-24T08:46:37,42.805,6.029,0.025,0.017,-0.01,103.0,114.0,100.0,13.4,1505.3,328.2,-0.7,1.8,2470.066,13.32,0.03,55.8
2019-07-24T08:49:38,42.805,6.029,0.054,0.009,-0.023,103.0,113.0,99.0,13.4,1505.3,326.3,-0.7,1.9,2470.107,13.32,0.054,80.5
2019-07-24T08:52:39,42.805,6.029,0.025,0.018,-0.003,103.0,113.0,99.0,13.4,1505.3,327.5,-0.7,1.8,2470.057,13.32,0.03,54.2
2019-07-24T08:55:40,42.805,6.029,0.052,0.0,0.015,103.0,111.0,100.0,13.4,1505.3,327.9,-0.7,1.8,2470.065,13.32,0.052,90.0
2019-07-24T08:58:41,42.805,6.029,0.044,-0.005,-0.009,101.0,115.0,99.0,13.3,1505.3,323.3,-0.7,1.8,2470.059,13.32,0.044,96.5
2019-07-24T09:01:42,42.805,6.029,0.038,-0.01,-0.022,104.0,112.0,99.0,13.4,1505.3,324.2,-0.8,1.8,2470.072,13.32,0.039,104.7
2019-07-24T09:04:43,42.805,6.029,0.031,0.018,-0.034,102.0,112.0,98.0,13.4,1505.3,322.8,-0.7,1.8,2470.091,13.32,0.035,59.9
2019-07-24T09:07:44,42.805,6.029,0.041,0.002,-0.011,102.0,110.0,100.0,13.3,1505.3,323.4,-0.7,1.8,2470.049,13.32,0.041,87.2
2019-07-24T09:10:45,42.805,6.029,0.066,-0.001,-0.014,102.0,111.0,98.0,13.4,1505.3,323.6,-0.7,1.8,2470.066,13.32,0.066,90.9
2019-07-24T09:13:46,42.805,6.029,0.054,-0.003,0.018,102.0,112.0,98.0,13.3,1505.3,324.7,-0.7,1.8,2470.055,13.32,0.054,93.2
2019-07-24T09:16:47,42.805,6.029,0.057,0.002,-0.035,103.0,110.0,99.0,13.4,1505.3,323.7,-0.7,1.8,2470.076,13.32,0.057,88.0
2019-07-24T09:19:48,42.805,6.029,0.02,-0.007,-0.038,102.0,112.0,100.0,13.4,1505.3,326.0,-0.7,1.8,2470.078,13.32,0.021,109.3
2019-07-24T09:22:49,42.805,6.029,0.043,0.002,-0.014,101.0,110.0,99.0,13.4,1505.3,322.8,-0.7,1.8,2470.098,13.32,0.043,87.3
2019-07-24T09:25:50,42.805,6.029,0.033,0.005,-0.005,102.0,112.0,99.0,13.4,1505.3,325.4,-0.7,1.8,2470.086,13.32,0.033,81.4
2019-07-24T09:28:51,42.805,6.029,0.037,-0.017,-0.011,103.0,109.0,99.0,13.4,1505.3,326.8,-0.7,1.9,2470.043,13.32,0.04,114.7
2019-07-24T09:31:52,42.805,6.029,0.053,0.007,-0.013,101.0,112.0,100.0,13.4,1505.3,325.8,-0.7,1.8,2470.095,13.32,0.053,82.5
2019-07-24T09:34:53,42.805,6.029,0.047,0.006,-0.001,102.0,110.0,100.0,13.3,1505.3,325.8,-0.7,1.8,2470.084,13.32,0.047,82.7
2019-07-24T09:37:54,42.805,6.029,0.01,-0.015,-0.008,102.0,110.0,101.0,13.4,1505.3,326.8,-0.7,1.8,2470.042,13.32,0.018,146.3